Location: Beuvrequen
(50.8014°N, 1.6652°E)
Time: 22:14:02
(UTC+00:00)

Cosmos 2082 - Pass Details

Date: 16 October 2021
Orbit: 835 x 853 km, 71.0° (Epoch: 04 December)

Event Time Altitude Azimuth Distance (km) Brightness Sun altitude
Rises 18:06:24 0° 329° (NNW) 3,398 7.3 -11.4°
Reaches altitude 10° 18:08:51 10° 327° (NNW) 2,459 6.6 -11.8°
Maximum altitude 18:14:27 73° 245° (WSW) 878 4.0 -12.7°
Drops below altitude 10° 18:20:02 10° 161° (SSE) 2,442 5.9 -13.6°
Sets 18:22:28 0° 160° (SSE) 3,374 6.6 -14.0°
